GW1942 Weather Reports


time (UTC)temp
F
wind
direction
speed
knots
gust
knots
rain 1hr
in
rain 24hr
in
rain mn
in
humidity
%
barometer
mb
20260831030034 58 161 2.6 4.3 0.00 0.00 0.00 53 1014.5
20260831024534 58 161 0.0 1.7 0.00 0.00 0.00 53 1014.6
20260831023034 59 161 0.0 0.0 0.00 0.00 0.00 52 1014.4
20260831021533 60 161 0.0 0.0 0.00 0.00 0.00 52 1014.3
20260831020032 62 161 0.0 0.9 0.00 0.00 0.00 48 1014.3
20260831014532 65 161 0.0 0.9 0.00 0.00 0.00 42 1014.3
20260831013032 66 161 0.0 1.7 0.00 0.00 0.00 41 1014.3
20260831011541 67 161 0.0 3.5 0.00 0.00 0.00 39 1014.4
20260831010030 69 161 0.0 1.7 0.00 0.00 0.00 38 1014.5
20260831004530 68 161 0.0 2.6 0.00 0.00 0.00 38 1014.4
20260831003035 67 161 0.0 7.8 0.00 0.00 0.00 39 1014.5
20260831001529 67 161 0.9 3.5 0.00 0.00 0.00 39 1014.4
20260831000035 66 161 0.9 3.5 0.00 0.00 0.00 41 1014.4
20260830234536 65 161 1.7 4.3 0.00 0.00 0.00 44 1014.5
20260830233027 65 161 0.9 4.3 0.00 0.00 0.00 44 1014.8
20260830231527 65 161 1.7 5.2 0.00 0.00 0.00 43 1014.9
20260830230025 66 161 0.9 3.5 0.00 0.00 0.00 41 1014.9
20260830224525 68 161 0.0 4.3 0.00 0.00 0.00 38 1015.0
20260830223024 66 161 1.7 4.3 0.00 0.00 0.00 39 1015.2
20260830221535 65 161 0.9 4.3 0.00 0.00 0.00 42 1015.2
20260830220022 65 161 0.0 2.6 0.00 0.00 0.00 42 1015.3
20260830214522 65 161 0.0 4.3 0.00 0.00 0.00 41 1015.4
20260830213021 66 161 0.9 10.4 0.00 0.00 0.00 39 1015.4
20260830211520 69 161 0.9 7.8 0.00 0.00 0.00 38 1015.4
20260830210016 67 161 0.9 8.7 0.00 0.00 0.00 39 1015.3
20260830204518 66 161 1.7 7.8 0.00 0.00 0.00 40 1015.2
20260830203014 65 161 1.7 7.0 0.00 0.00 0.00 41 1015.0
20260830201513 66 161 0.0 5.2 0.00 0.00 0.00 40 1015.0
20260830200011 67 161 1.7 7.8 0.00 0.00 0.00 39 1014.9
20260830194509 65 161 2.6 9.6 0.00 0.00 0.00 39 1015.0
20260830193007 63 161 0.9 8.7 0.00 0.00 0.00 44 1014.7
20260830191513 63 161 0.9 7.0 0.00 0.00 0.00 43 1014.8
20260830190004 63 161 0.9 4.3 0.00 0.00 0.00 46 1014.7
20260830184502 61 161 0.9 5.2 0.00 0.00 0.00 48 1014.8
20260830183058 60 161 0.9 5.2 0.00 0.00 0.00 49 1014.7
20260830181557 60 161 0.0 6.1 0.00 0.00 0.00 51 1014.6
20260830180100 59 161 0.0 3.5 0.00 0.00 0.00 54 1014.5
20260830174602 59 161 0.0 1.7 0.00 0.00 0.00 54 1014.3
20260830173114 57 161 0.0 0.9 0.00 0.00 0.00 60 1014.3
20260830171557 56 161 0.0 1.7 0.00 0.00 0.00 62 1014.2
20260830170050 56 161 0.0 1.7 0.00 0.00 0.00 61 1014.0
20260830164548 56 161 0.9 2.6 0.00 0.00 0.00 61 1014.0
20260830163046 56 161 0.9 3.5 0.00 0.00 0.00 62 1013.8
20260830161600 57 161 0.9 2.6 0.00 0.00 0.00 60 1013.4
20260830160043 57 161 0.0 5.2 0.00 0.00 0.00 54 1013.4
20260830154543 57 161 0.0 7.0 0.00 0.00 0.00 55 1013.2
20260830153042 56 161 0.0 5.2 0.00 0.00 0.00 57 1013.3
20260830151554 56 161 1.7 6.1 0.00 0.00 0.00 61 1013.2
20260830150041 56 161 2.6 7.8 0.00 0.00 0.00 60 1013.2
20260830144550 55 161 0.0 7.0 0.00 0.00 0.00 61 1013.2
20260830143040 55 161 0.9 6.1 0.00 0.00 0.00 62 1013.2
20260830141539 54 161 4.3 8.7 0.00 0.00 0.00 63 1013.0
20260830140038 54 161 3.5 7.0 0.00 0.00 0.00 63 1013.1
20260830134544 54 161 1.7 7.0 0.00 0.00 0.00 64 1013.1
20260830133037 53 161 4.3 7.0 0.00 0.00 0.00 66 1013.1
20260830131535 53 161 2.6 7.8 0.00 0.00 0.00 66 1013.2
20260830130031 54 161 3.5 7.0 0.00 0.00 0.00 63 1013.1
20260830124536 54 161 2.6 5.2 0.00 0.00 0.00 62 1013.1
20260830123029 54 161 1.7 7.0 0.00 0.00 0.00 62 1013.1
20260830121527 54 161 0.9 7.8 0.00 0.00 0.00 62 1013.3
20260830120025 54 161 1.7 11.3 0.00 0.00 0.00 62 1013.3
20260830114523 54 162 3.5 7.8 0.00 0.00 0.00 61 1013.3
20260830113023 54 162 3.5 7.8 0.00 0.00 0.00 60 1013.4
20260830111520 54 161 2.6 8.7 0.00 0.00 0.00 59 1013.3
20260830110019 55 162 0.0 1.7 0.00 0.00 0.00 57 1013.4
20260830104517 55 162 0.0 0.9 0.00 0.00 0.00 56 1013.4
20260830103029 55 161 0.9 4.3 0.00 0.00 0.00 56 1013.3
20260830101513 56 162 0.0 3.5 0.00 0.00 0.00 53 1013.2
20260830100011 56 161 0.0 1.7 0.00 0.00 0.00 53 1013.2
20260830094508 58 161 0.0 1.7 0.00 0.00 0.00 48 1013.0
20260830093015 58 161 0.0 2.6 0.00 0.00 0.00 48 1012.8
20260830091507 57 161 0.0 2.6 0.00 0.00 0.00 48 1012.8
20260830090007 57 162 0.0 3.5 0.00 0.00 0.00 48 1012.9
20260830084506 57 161 0.9 2.6 0.00 0.00 0.00 48 1012.9
20260830083004 57 162 1.7 11.3 0.00 0.00 0.00 47 1012.8
20260830081505 56 161 0.9 3.5 0.00 0.00 0.00 49 1012.6
20260830080002 56 161 1.7 5.2 0.00 0.00 0.00 49 1012.6
20260830074604 57 161 0.0 2.6 0.00 0.00 0.00 48 1012.6
20260830073059 57 161 0.0 3.5 0.00 0.00 0.00 47 1012.7
20260830071557 57 161 0.9 2.6 0.00 0.00 0.00 47 1012.6
20260830070054 58 161 0.0 0.9 0.00 0.00 0.00 46 1012.6
20260830064605 59 161 0.9 4.3 0.00 0.00 0.00 45 1012.7
20260830063049 59 161 0.9 5.2 0.00 0.00 0.00 45 1012.6
20260830061548 59 162 2.6 6.1 0.00 0.00 0.00 45 1012.6
20260830060046 59 161 1.7 6.1 0.00 0.00 0.00 45 1012.5
20260830054545 59 161 0.9 5.2 0.00 0.00 0.00 45 1012.5
20260830053044 58 161 1.7 3.5 0.00 0.00 0.00 45 1012.3
20260830051544 57 162 0.0 1.7 0.00 0.00 0.00 47 1012.3
20260830050044 57 161 0.9 2.6 0.00 0.00 0.00 46 1012.4
20260830044541 57 161 0.0 0.9 0.00 0.00 0.00 46 1012.4
20260830043041 57 161 0.0 1.7 0.00 0.00 0.00 44 1012.1
20260830041542 57 161 0.0 2.6 0.00 0.00 0.00 43 1012.1
20260830040042 56 161 1.7 2.6 0.00 0.00 0.00 45 1012.1
20260830034537 54 161 0.0 0.0 0.00 0.00 0.00 47 1012.0
20260830033038 55 161 0.0 2.6 0.00 0.00 0.00 44 1011.8
20260830031535 59 161 0.9 1.7 0.00 0.00 0.00 39 1011.6